N474KC SCCF-SCEL

Flight info

Callsign N474KC
Flight time 2h 45m
Altitude 23000
Route N0275F230 CEPAM4C CEPAM Q815 SIMOK SIMOK7B
Aircraft PC12/L-SDFGRWY/S

Departure

Time 2026-05-05 23:25
Airport El Loa Airport (SCCF)

Arrival

Time 2026-05-06 02:10
Airport Comodoro Arturo Merino Benítez International Airport (SCEL)
Time Latitude Longitude Altitude Speed Heading
2026-05-05 22:49 -22.49585 -68.90878 7506 ft 0 kts 314°
2026-05-05 23:17 -22.49584 -68.90878 7479 ft 0 kts
2026-05-05 23:17 -22.49581 -68.90877 7506 ft 2 kts 20°
2026-05-05 23:18 -22.49576 -68.90867 7506 ft 3 kts 97°
2026-05-05 23:18 -22.49615 -68.90853 7506 ft 0 kts 180°
2026-05-05 23:18 -22.49624 -68.90850 7506 ft 4 kts 144°
2026-05-05 23:18 -22.49652 -68.90814 7503 ft 10 kts 98°
2026-05-05 23:19 -22.49712 -68.90776 7505 ft 15 kts 181°
2026-05-05 23:19 -22.49804 -68.90721 7498 ft 19 kts 100°
2026-05-05 23:19 -22.49815 -68.90584 7508 ft 19 kts 93°
2026-05-05 23:19 -22.49823 -68.90440 7527 ft 19 kts 93°
2026-05-05 23:20 -22.49836 -68.90300 7538 ft 19 kts 95°
2026-05-05 23:20 -22.49847 -68.90148 7548 ft 21 kts 93°
2026-05-05 23:20 -22.49855 -68.89992 7560 ft 21 kts 93°
2026-05-05 23:20 -22.49866 -68.89832 7570 ft 22 kts 94°
2026-05-05 23:21 -22.49882 -68.89659 7579 ft 24 kts 97°
2026-05-05 23:21 -22.49896 -68.89478 7590 ft 24 kts 94°
2026-05-05 23:21 -22.49908 -68.89292 7600 ft 25 kts 94°
2026-05-05 23:21 -22.49920 -68.89102 7613 ft 25 kts 94°
2026-05-05 23:22 -22.49931 -68.88915 7626 ft 25 kts 93°
2026-05-05 23:22 -22.50003 -68.88844 7632 ft 0 kts 183°
2026-05-05 23:23 -22.50021 -68.88845 7632 ft 8 kts 184°
2026-05-05 23:23 -22.50101 -68.88870 7632 ft 17 kts 242°
2026-05-05 23:23 -22.50106 -68.89025 7622 ft 24 kts 278°
2026-05-05 23:24 -22.50083 -68.89396 7596 ft 77 kts 262°
2026-05-05 23:24 -22.50033 -68.90137 7551 ft 119 kts 272°
2026-05-05 23:24 -22.49970 -68.91104 7702 ft 134 kts 270°
2026-05-05 23:24 -22.49933 -68.92150 7946 ft 145 kts 270°
2026-05-05 23:25 -22.49870 -68.93230 8480 ft 143 kts 270°
2026-05-05 23:25 -22.49845 -68.94301 8868 ft 143 kts 267°
2026-05-05 23:25 -22.49852 -68.95371 9288 ft 142 kts 265°
2026-05-05 23:25 -22.49880 -68.96435 9731 ft 142 kts 265°
2026-05-05 23:26 -22.49926 -68.97542 10098 ft 153 kts 265°
2026-05-05 23:26 -22.49988 -68.98714 10452 ft 160 kts 264°
2026-05-05 23:26 -22.50059 -68.99940 10791 ft 166 kts 265°
2026-05-05 23:26 -22.50135 -69.01201 11123 ft 170 kts 265°
2026-05-05 23:27 -22.50215 -69.02493 11454 ft 174 kts 265°
2026-05-05 23:27 -22.50296 -69.03808 11788 ft 176 kts 265°
2026-05-05 23:27 -22.50378 -69.05140 12127 ft 178 kts 265°
2026-05-05 23:27 -22.50461 -69.06483 12468 ft 180 kts 265°
2026-05-05 23:28 -22.50541 -69.07821 12814 ft 181 kts 266°
2026-05-05 23:28 -22.50622 -69.09186 13167 ft 182 kts 265°
2026-05-05 23:28 -22.50704 -69.10554 13518 ft 182 kts 265°
2026-05-05 23:28 -22.51211 -69.11772 13847 ft 181 kts 225°
2026-05-05 23:29 -22.52274 -69.12485 14190 ft 182 kts 195°
2026-05-05 23:29 -22.53534 -69.12505 14525 ft 183 kts 171°
2026-05-05 23:29 -22.54791 -69.12262 14866 ft 183 kts 171°
2026-05-05 23:29 -22.56051 -69.12027 15208 ft 184 kts 172°
2026-05-05 23:30 -22.57316 -69.11804 15550 ft 184 kts 173°
2026-05-05 23:30 -22.58584 -69.11580 15892 ft 185 kts 173°
2026-05-05 23:30 -22.59845 -69.11355 16224 ft 186 kts 173°
2026-05-05 23:30 -22.61122 -69.11127 16567 ft 186 kts 173°
2026-05-05 23:31 -22.62402 -69.10898 16909 ft 187 kts 173°
2026-05-05 23:31 -22.63686 -69.10669 17253 ft 187 kts 174°
2026-05-05 23:31 -22.64974 -69.10439 17600 ft 188 kts 174°
2026-05-05 23:31 -22.66264 -69.10208 17946 ft 188 kts 174°
2026-05-05 23:32 -22.67562 -69.09976 18304 ft 189 kts 174°
2026-05-05 23:32 -22.68865 -69.09743 18620 ft 190 kts 175°
2026-05-05 23:32 -22.70170 -69.09509 18922 ft 191 kts 175°
2026-05-05 23:32 -22.71480 -69.09275 19217 ft 192 kts 175°
2026-05-05 23:33 -22.72801 -69.09038 19521 ft 193 kts 175°
2026-05-05 23:33 -22.74121 -69.08802 19822 ft 191 kts 175°
2026-05-05 23:33 -22.75432 -69.08571 20109 ft 190 kts 178°
2026-05-05 23:33 -22.76723 -69.08443 20371 ft 189 kts 179°
2026-05-05 23:34 -22.78051 -69.08272 20656 ft 190 kts 179°
2026-05-05 23:34 -22.79349 -69.08114 20917 ft 191 kts 179°
2026-05-05 23:34 -22.80672 -69.07963 21188 ft 191 kts 180°
2026-05-05 23:34 -22.82001 -69.07812 21458 ft 192 kts 180°
2026-05-05 23:35 -22.83336 -69.07660 21743 ft 193 kts 180°
2026-05-05 23:35 -22.84675 -69.07506 22018 ft 194 kts 180°
2026-05-05 23:35 -22.86023 -69.07352 22299 ft 195 kts 181°
2026-05-05 23:35 -22.87379 -69.07196 22580 ft 196 kts 181°
2026-05-05 23:36 -22.88739 -69.07041 22856 ft 197 kts 181°
2026-05-05 23:36 -22.90112 -69.06884 23043 ft 203 kts 181°
2026-05-05 23:36 -22.91567 -69.06722 23049 ft 217 kts 181°
2026-05-05 23:36 -22.93108 -69.06573 23108 ft 225 kts 184°
2026-05-05 23:37 -22.94637 -69.06689 23352 ft 218 kts 193°
2026-05-05 23:37 -22.96182 -69.06462 23372 ft 237 kts 169°
2026-05-05 23:37 -22.97789 -69.05995 23441 ft 240 kts 174°
2026-05-05 23:37 -22.99454 -69.05748 23497 ft 243 kts 181°
2026-05-05 23:38 -23.01170 -69.05605 23446 ft 251 kts 181°
2026-05-05 23:38 -23.02934 -69.05428 23402 ft 258 kts 180°
2026-05-05 23:38 -23.04741 -69.05211 23350 ft 263 kts 179°
2026-05-05 23:38 -23.06554 -69.04992 23297 ft 262 kts 179°
2026-05-05 23:39 -23.08362 -69.04785 23245 ft 261 kts 180°
2026-05-05 23:39 -23.10158 -69.04582 23194 ft 264 kts 180°
2026-05-05 23:39 -23.11991 -69.04371 23145 ft 266 kts 180°
2026-05-05 23:39 -23.13844 -69.04157 23093 ft 268 kts 179°
2026-05-05 23:40 -23.15697 -69.03943 23066 ft 267 kts 179°
2026-05-05 23:40 -23.17540 -69.03730 23064 ft 266 kts 180°
2026-05-05 23:40 -23.19376 -69.03519 23066 ft 266 kts 180°
2026-05-05 23:40 -23.21218 -69.03307 23065 ft 266 kts 180°
2026-05-05 23:41 -23.23065 -69.03095 23070 ft 266 kts 180°
2026-05-05 23:41 -23.24906 -69.02882 23070 ft 266 kts 180°
2026-05-05 23:41 -23.26728 -69.02672 23069 ft 267 kts 180°
2026-05-05 23:41 -23.28575 -69.02460 23066 ft 267 kts 180°
2026-05-05 23:42 -23.30424 -69.02246 23065 ft 267 kts 180°
2026-05-05 23:42 -23.32273 -69.02046 23064 ft 265 kts 183°
2026-05-05 23:42 -23.34075 -69.02233 23068 ft 258 kts 195°
2026-05-05 23:42 -23.35846 -69.02556 23066 ft 258 kts 196°
2026-05-05 23:43 -23.37626 -69.02878 23065 ft 259 kts 195°
2026-05-05 23:43 -23.39408 -69.03187 23067 ft 260 kts 195°
2026-05-05 23:43 -23.41193 -69.03494 23064 ft 259 kts 195°
2026-05-05 23:43 -23.42970 -69.03804 23063 ft 258 kts 196°
2026-05-05 23:44 -23.44744 -69.04114 23062 ft 258 kts 196°
2026-05-05 23:44 -23.46518 -69.04424 23062 ft 258 kts 195°
2026-05-05 23:44 -23.48289 -69.04734 23064 ft 258 kts 196°
2026-05-05 23:44 -23.50062 -69.05043 23067 ft 258 kts 195°
2026-05-05 23:45 -23.51814 -69.05349 23061 ft 259 kts 195°
2026-05-05 23:45 -23.53593 -69.05659 23061 ft 259 kts 196°
2026-05-05 23:45 -23.55374 -69.05971 23059 ft 259 kts 196°
2026-05-05 23:45 -23.57157 -69.06282 23059 ft 260 kts 196°
2026-05-05 23:46 -23.58944 -69.06594 23061 ft 260 kts 196°
2026-05-05 23:46 -23.60734 -69.06907 23058 ft 261 kts 196°
2026-05-05 23:46 -23.62526 -69.07221 23056 ft 261 kts 196°
2026-05-05 23:46 -23.64323 -69.07535 23052 ft 261 kts 196°
2026-05-05 23:47 -23.66118 -69.07848 23052 ft 260 kts 196°
2026-05-05 23:47 -23.67900 -69.08160 23052 ft 259 kts 196°
2026-05-05 23:47 -23.69682 -69.08472 23053 ft 260 kts 196°
2026-05-05 23:47 -23.71469 -69.08786 23054 ft 260 kts 196°
2026-05-05 23:48 -23.73234 -69.09095 23054 ft 260 kts 196°
2026-05-05 23:48 -23.75027 -69.09408 23053 ft 260 kts 196°
2026-05-05 23:48 -23.76813 -69.09721 23054 ft 260 kts 196°
2026-05-05 23:48 -23.78595 -69.10034 23052 ft 259 kts 196°
2026-05-05 23:49 -23.80375 -69.10346 23051 ft 259 kts 196°
2026-05-05 23:49 -23.82150 -69.10657 23054 ft 259 kts 197°
2026-05-05 23:49 -23.83928 -69.10969 23054 ft 258 kts 197°
2026-05-05 23:49 -23.85704 -69.11281 23055 ft 258 kts 197°
2026-05-05 23:50 -23.87479 -69.11592 23054 ft 258 kts 197°
2026-05-05 23:50 -23.89257 -69.11905 23058 ft 259 kts 197°
2026-05-05 23:50 -23.91042 -69.12219 23057 ft 260 kts 197°
2026-05-05 23:50 -23.92833 -69.12533 23058 ft 260 kts 197°
2026-05-05 23:51 -23.94600 -69.12843 23055 ft 261 kts 197°
2026-05-05 23:51 -23.96415 -69.13162 23056 ft 261 kts 197°
2026-05-05 23:51 -23.98189 -69.13474 23058 ft 261 kts 197°
2026-05-05 23:51 -23.99978 -69.13789 23058 ft 261 kts 196°
2026-05-05 23:52 -24.01771 -69.14104 23061 ft 261 kts 196°
2026-05-05 23:52 -24.03561 -69.14419 23058 ft 261 kts 197°
2026-05-05 23:52 -24.05352 -69.14735 23061 ft 261 kts 197°
2026-05-05 23:52 -24.07142 -69.15050 23063 ft 261 kts 197°
2026-05-05 23:53 -24.08933 -69.15365 23061 ft 261 kts 197°
2026-05-05 23:53 -24.10728 -69.15681 23058 ft 261 kts 197°
2026-05-05 23:53 -24.12519 -69.15997 23063 ft 261 kts 197°
2026-05-05 23:53 -24.14312 -69.16313 23064 ft 261 kts 196°
2026-05-05 23:54 -24.16104 -69.16629 23066 ft 261 kts 196°
2026-05-05 23:54 -24.17897 -69.16945 23066 ft 261 kts 196°
2026-05-05 23:54 -24.19684 -69.17260 23067 ft 260 kts 196°
2026-05-05 23:54 -24.21446 -69.17571 23071 ft 260 kts 196°
2026-05-05 23:55 -24.23226 -69.17885 23068 ft 258 kts 196°
2026-05-05 23:55 -24.24997 -69.18197 23068 ft 257 kts 197°
2026-05-05 23:55 -24.26764 -69.18511 23068 ft 258 kts 197°
2026-05-05 23:55 -24.28539 -69.18825 23069 ft 259 kts 197°
2026-05-05 23:56 -24.30314 -69.19138 23070 ft 258 kts 196°
2026-05-05 23:56 -24.32091 -69.19452 23070 ft 259 kts 197°
2026-05-05 23:56 -24.33875 -69.19768 23076 ft 259 kts 197°
2026-05-05 23:56 -24.35056 -69.19976 23074 ft 259 kts 197°
2026-05-05 23:57 -24.37442 -69.20399 23079 ft 260 kts 197°
2026-05-05 23:57 -24.38626 -69.20608 23080 ft 260 kts 197°
2026-05-05 23:57 -24.40417 -69.20925 23079 ft 261 kts 197°
2026-05-05 23:57 -24.42790 -69.21345 23083 ft 261 kts 197°
2026-05-05 23:58 -24.44007 -69.21560 23082 ft 261 kts 197°
2026-05-05 23:58 -24.45781 -69.21875 23089 ft 261 kts 197°
2026-05-05 23:58 -24.47577 -69.22193 23083 ft 261 kts 197°
2026-05-05 23:58 -24.49373 -69.22511 23091 ft 262 kts 197°
2026-05-05 23:59 -24.51186 -69.22833 23089 ft 263 kts 196°
2026-05-05 23:59 -24.52980 -69.23151 23092 ft 263 kts 196°
2026-05-05 23:59 -24.54791 -69.23472 23088 ft 264 kts 197°
2026-05-05 23:59 -24.56611 -69.23795 23089 ft 264 kts 197°
2026-05-06 00:00 -24.58424 -69.24117 23090 ft 264 kts 197°
2026-05-06 00:00 -24.60239 -69.24439 23089 ft 264 kts 197°
2026-05-06 00:00 -24.62054 -69.24762 23092 ft 264 kts 197°
2026-05-06 00:00 -24.63868 -69.25085 23093 ft 264 kts 197°
2026-05-06 00:01 -24.65679 -69.25406 23094 ft 263 kts 197°
2026-05-06 00:01 -24.67486 -69.25727 23103 ft 263 kts 197°
2026-05-06 00:01 -24.69293 -69.26049 23106 ft 262 kts 197°
2026-05-06 00:01 -24.71073 -69.26365 23108 ft 262 kts 197°
2026-05-06 00:02 -24.72872 -69.26686 23108 ft 262 kts 197°
2026-05-06 00:02 -24.74675 -69.27007 23116 ft 263 kts 197°
2026-05-06 00:02 -24.76483 -69.27329 23113 ft 263 kts 197°
2026-05-06 00:02 -24.78292 -69.27651 23115 ft 264 kts 197°
2026-05-06 00:03 -24.80108 -69.27974 23117 ft 264 kts 197°
2026-05-06 00:03 -24.81920 -69.28297 23120 ft 264 kts 197°
2026-05-06 00:03 -24.83739 -69.28621 23121 ft 265 kts 197°
2026-05-06 00:03 -24.85558 -69.28946 23121 ft 265 kts 197°
2026-05-06 00:04 -24.87380 -69.29271 23124 ft 265 kts 197°
2026-05-06 00:04 -24.89181 -69.29592 23127 ft 265 kts 197°
2026-05-06 00:04 -24.91005 -69.29917 23131 ft 265 kts 198°
2026-05-06 00:04 -24.92828 -69.30243 23130 ft 265 kts 198°
2026-05-06 00:05 -24.96476 -69.30894 23136 ft 266 kts 198°
2026-05-06 00:05 -24.98301 -69.31220 23138 ft 266 kts 198°
2026-05-06 00:05 -25.00133 -69.31548 23138 ft 266 kts 198°
2026-05-06 00:06 -25.01959 -69.31874 23138 ft 266 kts 198°
2026-05-06 00:06 -25.03792 -69.32202 23142 ft 266 kts 198°
2026-05-06 00:06 -25.05622 -69.32529 23146 ft 266 kts 198°
2026-05-06 00:06 -25.07429 -69.32853 23144 ft 266 kts 198°
2026-05-06 00:07 -25.09259 -69.33180 23147 ft 267 kts 198°
2026-05-06 00:07 -25.11089 -69.33508 23146 ft 266 kts 198°
2026-05-06 00:07 -25.12916 -69.33835 23146 ft 266 kts 198°
2026-05-06 00:07 -25.14569 -69.34131 23150 ft 266 kts 198°
2026-05-06 00:08 -25.16394 -69.34458 23150 ft 266 kts 198°
2026-05-06 00:08 -25.18222 -69.34786 23146 ft 266 kts 198°
2026-05-06 00:08 -25.20049 -69.35113 23149 ft 266 kts 198°
2026-05-06 00:08 -25.21876 -69.35441 23149 ft 266 kts 198°
2026-05-06 00:09 -25.23703 -69.35769 23149 ft 266 kts 198°
2026-05-06 00:09 -25.25530 -69.36097 23152 ft 266 kts 198°
2026-05-06 00:09 -25.27357 -69.36425 23150 ft 265 kts 198°
2026-05-06 00:09 -25.29179 -69.36752 23151 ft 265 kts 198°
2026-05-06 00:10 -25.31002 -69.37079 23149 ft 265 kts 198°
2026-05-06 00:10 -25.32794 -69.37401 23149 ft 265 kts 198°
2026-05-06 00:10 -25.34638 -69.37733 23147 ft 265 kts 198°
2026-05-06 00:10 -25.36433 -69.38055 23146 ft 264 kts 198°
2026-05-06 00:11 -25.38248 -69.38382 23148 ft 264 kts 198°
2026-05-06 00:11 -25.40058 -69.38707 23146 ft 264 kts 198°
2026-05-06 00:11 -25.41869 -69.39034 23147 ft 264 kts 198°
2026-05-06 00:11 -25.43680 -69.39359 23142 ft 264 kts 198°
2026-05-06 00:12 -25.45491 -69.39686 23141 ft 264 kts 198°
2026-05-06 00:12 -25.47300 -69.40011 23140 ft 263 kts 198°
2026-05-06 00:12 -25.49110 -69.40337 23138 ft 263 kts 198°
2026-05-06 00:12 -25.50919 -69.40663 23141 ft 263 kts 198°
2026-05-06 00:13 -25.52725 -69.40989 23139 ft 263 kts 198°
2026-05-06 00:13 -25.54530 -69.41315 23137 ft 263 kts 198°
2026-05-06 00:13 -25.56275 -69.41781 23136 ft 254 kts 207°
2026-05-06 00:13 -25.57947 -69.42415 23130 ft 254 kts 208°
2026-05-06 00:14 -25.59621 -69.43058 23125 ft 255 kts 208°
2026-05-06 00:14 -25.61300 -69.43690 23126 ft 255 kts 208°
2026-05-06 00:14 -25.62982 -69.44317 23124 ft 255 kts 208°
2026-05-06 00:14 -25.64636 -69.44938 23122 ft 254 kts 208°
2026-05-06 00:15 -25.66334 -69.45577 23117 ft 254 kts 208°
2026-05-06 00:15 -25.67983 -69.46197 23117 ft 253 kts 208°
2026-05-06 00:15 -25.69648 -69.46823 23103 ft 251 kts 208°
2026-05-06 00:15 -25.71300 -69.47444 23116 ft 250 kts 208°
2026-05-06 00:16 -25.72950 -69.48066 23110 ft 250 kts 208°
2026-05-06 00:16 -25.74600 -69.48688 23112 ft 250 kts 208°
2026-05-06 00:16 -25.76251 -69.49309 23111 ft 250 kts 208°
2026-05-06 00:16 -25.77902 -69.49931 23112 ft 251 kts 209°
2026-05-06 00:17 -25.79553 -69.50553 23107 ft 251 kts 209°
2026-05-06 00:17 -25.81207 -69.51177 23102 ft 251 kts 209°
2026-05-06 00:17 -25.82863 -69.51801 23103 ft 251 kts 208°
2026-05-06 00:17 -25.84502 -69.52419 23098 ft 251 kts 209°
2026-05-06 00:18 -25.86157 -69.53043 23096 ft 251 kts 209°
2026-05-06 00:18 -25.87816 -69.53669 23098 ft 251 kts 209°
2026-05-06 00:18 -25.89468 -69.54292 23089 ft 251 kts 209°
2026-05-06 00:18 -25.91123 -69.54917 23092 ft 251 kts 209°
2026-05-06 00:19 -25.92775 -69.55541 23087 ft 250 kts 209°
2026-05-06 00:19 -25.94400 -69.56154 23085 ft 248 kts 209°
2026-05-06 00:19 -25.96034 -69.56772 23075 ft 248 kts 209°
2026-05-06 00:19 -25.97673 -69.57392 23083 ft 248 kts 209°
2026-05-06 00:20 -25.99311 -69.58012 23079 ft 248 kts 209°
2026-05-06 00:20 -26.00947 -69.58630 23079 ft 248 kts 209°
2026-05-06 00:20 -26.02583 -69.59249 23077 ft 248 kts 209°
2026-05-06 00:20 -26.04220 -69.59868 23078 ft 248 kts 209°
2026-05-06 00:21 -26.05859 -69.60489 23072 ft 249 kts 209°
2026-05-06 00:21 -26.07497 -69.61109 23075 ft 249 kts 209°
2026-05-06 00:21 -26.09141 -69.61732 23060 ft 249 kts 209°
2026-05-06 00:21 -26.10772 -69.62348 23063 ft 246 kts 209°
2026-05-06 00:22 -26.12398 -69.62964 23063 ft 247 kts 209°
2026-05-06 00:22 -26.14024 -69.63582 23073 ft 247 kts 209°
2026-05-06 00:22 -26.15652 -69.64200 23063 ft 247 kts 209°
2026-05-06 00:22 -26.17281 -69.64817 23060 ft 247 kts 209°
2026-05-06 00:23 -26.18910 -69.65435 23066 ft 248 kts 209°
2026-05-06 00:23 -26.20520 -69.66046 23066 ft 248 kts 209°
2026-05-06 00:23 -26.22158 -69.66668 23067 ft 248 kts 209°
2026-05-06 00:23 -26.23791 -69.67288 23061 ft 248 kts 209°
2026-05-06 00:24 -26.25428 -69.67910 23060 ft 248 kts 209°
2026-05-06 00:24 -26.27065 -69.68532 23061 ft 249 kts 209°
2026-05-06 00:24 -26.28704 -69.69155 23063 ft 249 kts 209°
2026-05-06 00:24 -26.30345 -69.69779 23058 ft 249 kts 209°
2026-05-06 00:25 -26.31985 -69.70403 23065 ft 249 kts 209°
2026-05-06 00:25 -26.33620 -69.71025 23064 ft 249 kts 209°
2026-05-06 00:25 -26.35258 -69.71648 23057 ft 249 kts 209°
2026-05-06 00:25 -26.36897 -69.72273 23059 ft 249 kts 208°
2026-05-06 00:26 -26.38536 -69.72896 23057 ft 248 kts 208°
2026-05-06 00:26 -26.40147 -69.73509 23051 ft 247 kts 208°
2026-05-06 00:26 -26.41774 -69.74129 23061 ft 247 kts 208°
2026-05-06 00:26 -26.43396 -69.74748 23059 ft 246 kts 209°
2026-05-06 00:27 -26.45021 -69.75367 23062 ft 246 kts 208°
2026-05-06 00:27 -26.46642 -69.75985 23061 ft 246 kts 208°
2026-05-06 00:27 -26.48258 -69.76601 23061 ft 245 kts 208°
2026-05-06 00:27 -26.49874 -69.77219 23064 ft 246 kts 208°
2026-05-06 00:28 -26.51500 -69.77840 23062 ft 247 kts 208°
2026-05-06 00:28 -26.53130 -69.78462 23062 ft 248 kts 208°
2026-05-06 00:28 -26.54764 -69.79086 23065 ft 248 kts 208°
2026-05-06 00:28 -26.56404 -69.79712 23060 ft 249 kts 208°
2026-05-06 00:29 -26.58042 -69.80338 23062 ft 249 kts 208°
2026-05-06 00:29 -26.59685 -69.80966 23060 ft 249 kts 208°
2026-05-06 00:29 -26.61307 -69.81587 23062 ft 249 kts 208°
2026-05-06 00:29 -26.62945 -69.82214 23065 ft 249 kts 208°
2026-05-06 00:30 -26.64589 -69.82843 23064 ft 250 kts 208°
2026-05-06 00:30 -26.66230 -69.83471 23061 ft 249 kts 208°
2026-05-06 00:30 -26.67868 -69.84098 23065 ft 249 kts 208°
2026-05-06 00:30 -26.69505 -69.84725 23064 ft 248 kts 208°
2026-05-06 00:31 -26.71146 -69.85354 23059 ft 249 kts 208°
2026-05-06 00:31 -26.72787 -69.85983 23061 ft 249 kts 208°
2026-05-06 00:31 -26.74423 -69.86609 23062 ft 248 kts 208°
2026-05-06 00:31 -26.76056 -69.87235 23057 ft 248 kts 208°
2026-05-06 00:32 -26.77690 -69.87862 23053 ft 248 kts 208°
2026-05-06 00:32 -26.79304 -69.88482 23059 ft 248 kts 208°
2026-05-06 00:32 -26.80936 -69.89108 23058 ft 248 kts 208°
2026-05-06 00:32 -26.82563 -69.89732 23055 ft 247 kts 208°
2026-05-06 00:33 -26.84184 -69.90354 23056 ft 246 kts 208°
2026-05-06 00:33 -26.85797 -69.90974 23059 ft 245 kts 208°
2026-05-06 00:33 -26.87407 -69.91593 23058 ft 244 kts 208°
2026-05-06 00:33 -26.89014 -69.92210 23058 ft 244 kts 208°
2026-05-06 00:34 -26.90619 -69.92828 23060 ft 243 kts 208°
2026-05-06 00:34 -26.92224 -69.93445 23058 ft 243 kts 208°
2026-05-06 00:34 -26.93827 -69.94062 23056 ft 243 kts 208°
2026-05-06 00:34 -26.95432 -69.94680 23055 ft 243 kts 208°
2026-05-06 00:35 -26.97035 -69.95297 23052 ft 244 kts 208°
2026-05-06 00:35 -26.98639 -69.95914 23058 ft 244 kts 208°
2026-05-06 00:35 -27.00222 -69.96524 23056 ft 244 kts 208°
2026-05-06 00:35 -27.01831 -69.97144 23050 ft 243 kts 208°
2026-05-06 00:36 -27.03431 -69.97760 23054 ft 243 kts 208°
2026-05-06 00:36 -27.05037 -69.98380 23047 ft 243 kts 208°
2026-05-06 00:36 -27.06642 -69.98998 23047 ft 242 kts 208°
2026-05-06 00:36 -27.08235 -69.99612 23048 ft 242 kts 208°
2026-05-06 00:37 -27.09809 -70.00220 23051 ft 242 kts 208°
2026-05-06 00:37 -27.11398 -70.00833 23046 ft 241 kts 208°
2026-05-06 00:37 -27.12983 -70.01445 23050 ft 241 kts 208°
2026-05-06 00:37 -27.14567 -70.02057 23051 ft 241 kts 208°
2026-05-06 00:38 -27.16153 -70.02670 23048 ft 240 kts 208°
2026-05-06 00:38 -27.17735 -70.03282 23048 ft 240 kts 208°
2026-05-06 00:38 -27.19321 -70.03895 23048 ft 241 kts 208°
2026-05-06 00:38 -27.20907 -70.04509 23048 ft 241 kts 208°
2026-05-06 00:39 -27.22493 -70.05121 23040 ft 241 kts 208°
2026-05-06 00:39 -27.24087 -70.05738 23044 ft 241 kts 208°
2026-05-06 00:39 -27.25676 -70.06353 23043 ft 241 kts 208°
2026-05-06 00:39 -27.27261 -70.06966 23044 ft 241 kts 208°
2026-05-06 00:40 -27.28860 -70.07568 23045 ft 242 kts 208°
2026-05-06 00:40 -27.30462 -70.08163 23043 ft 242 kts 208°
2026-05-06 00:40 -27.32059 -70.08761 23047 ft 242 kts 208°
2026-05-06 00:40 -27.33634 -70.09355 23045 ft 242 kts 208°
2026-05-06 00:41 -27.35237 -70.09959 23045 ft 243 kts 208°
2026-05-06 00:41 -27.36843 -70.10563 23047 ft 243 kts 208°
2026-05-06 00:41 -27.38449 -70.11167 23046 ft 244 kts 208°
2026-05-06 00:41 -27.40059 -70.11773 23048 ft 244 kts 208°
2026-05-06 00:42 -27.41672 -70.12380 23041 ft 244 kts 208°
2026-05-06 00:42 -27.43281 -70.12986 23043 ft 244 kts 208°
2026-05-06 00:42 -27.44886 -70.13591 23050 ft 243 kts 208°
2026-05-06 00:42 -27.46489 -70.14194 23045 ft 242 kts 208°
2026-05-06 00:43 -27.48087 -70.14797 23045 ft 242 kts 208°
2026-05-06 00:43 -27.49679 -70.15398 23048 ft 241 kts 208°
2026-05-06 00:43 -27.51268 -70.15997 23051 ft 241 kts 208°
2026-05-06 00:43 -27.52840 -70.16591 23049 ft 241 kts 208°
2026-05-06 00:44 -27.54429 -70.17190 23045 ft 241 kts 208°
2026-05-06 00:44 -27.56021 -70.17792 23046 ft 241 kts 208°
2026-05-06 00:44 -27.57616 -70.18394 23052 ft 242 kts 208°
2026-05-06 00:44 -27.59211 -70.18997 23045 ft 242 kts 208°
2026-05-06 00:45 -27.60271 -70.19397 23046 ft 242 kts 208°
2026-05-06 00:45 -27.61867 -70.20000 23040 ft 242 kts 208°
2026-05-06 00:45 -27.63469 -70.20607 23043 ft 243 kts 208°
2026-05-06 00:45 -27.65073 -70.21213 23042 ft 243 kts 208°
2026-05-06 00:46 -27.66676 -70.21819 23047 ft 243 kts 208°
2026-05-06 00:46 -27.68280 -70.22426 23050 ft 243 kts 208°
2026-05-06 00:46 -27.69888 -70.23035 23043 ft 242 kts 208°
2026-05-06 00:46 -27.71486 -70.23640 23048 ft 242 kts 208°
2026-05-06 00:47 -27.73084 -70.24246 23043 ft 242 kts 208°
2026-05-06 00:47 -27.74659 -70.24843 23052 ft 242 kts 208°
2026-05-06 00:47 -27.76254 -70.25448 23046 ft 242 kts 208°
2026-05-06 00:47 -27.77851 -70.26053 23046 ft 242 kts 208°
2026-05-06 00:48 -27.79445 -70.26658 23046 ft 242 kts 208°
2026-05-06 00:48 -27.81039 -70.27263 23058 ft 242 kts 208°
2026-05-06 00:48 -27.82638 -70.27869 23049 ft 242 kts 208°
2026-05-06 00:48 -27.84240 -70.28477 23045 ft 242 kts 208°
2026-05-06 00:49 -27.85839 -70.29085 23052 ft 242 kts 208°
2026-05-06 00:49 -27.87436 -70.29691 23046 ft 242 kts 208°
2026-05-06 00:49 -27.89035 -70.30299 23048 ft 243 kts 208°
2026-05-06 00:49 -27.90620 -70.30902 23048 ft 243 kts 208°
2026-05-06 00:50 -27.92247 -70.31521 23051 ft 243 kts 208°
2026-05-06 00:50 -27.93833 -70.32123 23049 ft 243 kts 208°
2026-05-06 00:50 -27.95439 -70.32734 23047 ft 243 kts 208°
2026-05-06 00:50 -27.97044 -70.33346 23049 ft 243 kts 208°
2026-05-06 00:51 -27.98647 -70.33956 23047 ft 243 kts 208°
2026-05-06 00:51 -28.00253 -70.34567 23050 ft 243 kts 208°
2026-05-06 00:51 -28.01856 -70.35178 23048 ft 243 kts 208°
2026-05-06 00:51 -28.03459 -70.35789 23048 ft 243 kts 208°
2026-05-06 00:52 -28.05061 -70.36400 23048 ft 244 kts 208°
2026-05-06 00:52 -28.06670 -70.37013 23047 ft 244 kts 208°
2026-05-06 00:52 -28.08276 -70.37626 23050 ft 244 kts 208°
2026-05-06 00:52 -28.09885 -70.38240 23052 ft 244 kts 208°
2026-05-06 00:53 -28.11494 -70.38854 23052 ft 244 kts 208°
2026-05-06 00:53 -28.13099 -70.39466 23049 ft 243 kts 208°
2026-05-06 00:53 -28.14704 -70.40080 23049 ft 244 kts 208°
2026-05-06 00:53 -28.16294 -70.40688 23049 ft 244 kts 208°
2026-05-06 00:54 -28.17903 -70.41302 23050 ft 244 kts 208°
2026-05-06 00:54 -28.19515 -70.41919 23050 ft 245 kts 209°
2026-05-06 00:54 -28.21148 -70.42543 23054 ft 244 kts 209°
2026-05-06 00:54 -28.22739 -70.43152 23054 ft 244 kts 209°
2026-05-06 00:55 -28.24353 -70.43769 23054 ft 245 kts 209°
2026-05-06 00:55 -28.25963 -70.44386 23049 ft 244 kts 209°
2026-05-06 00:55 -28.27572 -70.45001 23051 ft 244 kts 209°
2026-05-06 00:55 -28.29179 -70.45617 23050 ft 243 kts 209°
2026-05-06 00:56 -28.30784 -70.46232 23052 ft 244 kts 209°
2026-05-06 00:56 -28.32396 -70.46850 23044 ft 245 kts 209°
2026-05-06 00:56 -28.34015 -70.47471 23051 ft 245 kts 209°
2026-05-06 00:56 -28.35628 -70.48089 23046 ft 245 kts 209°
2026-05-06 00:57 -28.37240 -70.48707 23050 ft 244 kts 209°
2026-05-06 00:57 -28.38848 -70.49324 23050 ft 244 kts 209°
2026-05-06 00:57 -28.40458 -70.49943 23054 ft 244 kts 209°
2026-05-06 00:57 -28.42063 -70.50559 23045 ft 243 kts 209°
2026-05-06 00:58 -28.43660 -70.51171 23054 ft 242 kts 210°
2026-05-06 00:58 -28.45257 -70.51786 23054 ft 242 kts 210°
2026-05-06 00:58 -28.46855 -70.52400 23052 ft 242 kts 209°
2026-05-06 00:58 -28.48429 -70.53006 23049 ft 243 kts 210°
2026-05-06 00:59 -28.50046 -70.53588 23051 ft 248 kts 202°
2026-05-06 00:59 -28.51792 -70.53809 23048 ft 255 kts 194°
2026-05-06 00:59 -28.53574 -70.53945 23052 ft 256 kts 194°
2026-05-06 00:59 -28.55350 -70.54098 23051 ft 256 kts 195°
2026-05-06 01:00 -28.57128 -70.54271 23050 ft 257 kts 195°
2026-05-06 01:00 -28.58913 -70.54442 23048 ft 258 kts 195°
2026-05-06 01:00 -28.60709 -70.54611 23043 ft 259 kts 195°
2026-05-06 01:00 -28.62503 -70.54777 23048 ft 259 kts 195°
2026-05-06 01:01 -28.64300 -70.54944 23053 ft 259 kts 195°
2026-05-06 01:01 -28.66096 -70.55113 23046 ft 259 kts 195°
2026-05-06 01:01 -28.67896 -70.55282 23051 ft 259 kts 195°
2026-05-06 01:01 -28.69690 -70.55450 23044 ft 259 kts 195°
2026-05-06 01:02 -28.71461 -70.55616 23046 ft 258 kts 195°
2026-05-06 01:02 -28.73256 -70.55784 23049 ft 258 kts 196°
2026-05-06 01:02 -28.75041 -70.55952 23051 ft 257 kts 196°
2026-05-06 01:02 -28.76818 -70.56119 23050 ft 256 kts 195°
2026-05-06 01:03 -28.78596 -70.56287 23050 ft 256 kts 195°
2026-05-06 01:03 -28.80374 -70.56453 23055 ft 256 kts 195°
2026-05-06 01:03 -28.82148 -70.56619 23047 ft 255 kts 196°
2026-05-06 01:03 -28.83914 -70.56785 23055 ft 254 kts 196°
2026-05-06 01:04 -28.85658 -70.56950 23046 ft 255 kts 196°
2026-05-06 01:04 -28.87422 -70.57115 23050 ft 254 kts 196°
2026-05-06 01:04 -28.89193 -70.57283 23058 ft 256 kts 196°
2026-05-06 01:04 -28.90969 -70.57450 23060 ft 256 kts 196°
2026-05-06 01:05 -28.92751 -70.57617 23060 ft 256 kts 196°
2026-05-06 01:05 -28.94532 -70.57785 23057 ft 258 kts 196°
2026-05-06 01:05 -28.96312 -70.57953 23060 ft 256 kts 196°
2026-05-06 01:05 -28.98088 -70.58121 23054 ft 256 kts 196°
2026-05-06 01:06 -28.99859 -70.58289 23064 ft 255 kts 196°
2026-05-06 01:06 -29.01628 -70.58457 23055 ft 255 kts 196°
2026-05-06 01:06 -29.03395 -70.58624 23068 ft 255 kts 196°
2026-05-06 01:06 -29.05163 -70.58792 23061 ft 255 kts 196°
2026-05-06 01:07 -29.06932 -70.58959 23065 ft 255 kts 196°
2026-05-06 01:07 -29.08706 -70.59128 23067 ft 256 kts 196°
2026-05-06 01:07 -29.10490 -70.59297 23067 ft 257 kts 196°
2026-05-06 01:07 -29.12278 -70.59467 23067 ft 259 kts 196°
2026-05-06 01:08 -29.14078 -70.59308 23071 ft 268 kts 180°
2026-05-06 01:08 -29.15895 -70.59208 23063 ft 257 kts 193°
2026-05-06 01:08 -29.17668 -70.59350 23064 ft 253 kts 198°
2026-05-06 01:08 -29.19404 -70.59636 23069 ft 253 kts 200°
2026-05-06 01:09 -29.21159 -70.59883 23072 ft 254 kts 197°
2026-05-06 01:09 -29.22930 -70.60068 23074 ft 256 kts 197°
2026-05-06 01:09 -29.24706 -70.60253 23073 ft 256 kts 197°
2026-05-06 01:09 -29.26480 -70.60452 23075 ft 257 kts 197°
2026-05-06 01:10 -29.28264 -70.60659 23078 ft 259 kts 197°
2026-05-06 01:10 -29.30058 -70.60862 23079 ft 260 kts 197°
2026-05-06 01:10 -29.31857 -70.61062 23071 ft 260 kts 197°
2026-05-06 01:10 -29.33653 -70.61263 23076 ft 259 kts 197°
2026-05-06 01:11 -29.35448 -70.61466 23078 ft 259 kts 197°
2026-05-06 01:11 -29.37249 -70.61671 23079 ft 259 kts 197°
2026-05-06 01:11 -29.39041 -70.61871 23081 ft 258 kts 198°
2026-05-06 01:11 -29.40818 -70.62071 23080 ft 256 kts 198°
2026-05-06 01:12 -29.42592 -70.62272 23086 ft 256 kts 198°
2026-05-06 01:12 -29.44371 -70.62476 23081 ft 258 kts 197°
2026-05-06 01:12 -29.46155 -70.62677 23087 ft 257 kts 198°
2026-05-06 01:12 -29.47940 -70.62873 23085 ft 258 kts 197°
2026-05-06 01:13 -29.49740 -70.63048 23080 ft 260 kts 197°
2026-05-06 01:13 -29.51546 -70.63217 23081 ft 260 kts 197°
2026-05-06 01:13 -29.53350 -70.63393 23080 ft 260 kts 197°
2026-05-06 01:13 -29.55129 -70.63571 23077 ft 260 kts 197°
2026-05-06 01:14 -29.58737 -70.63928 23080 ft 261 kts 197°
2026-05-06 01:14 -29.60545 -70.64106 23078 ft 261 kts 197°
2026-05-06 01:14 -29.62353 -70.64284 23074 ft 260 kts 197°
2026-05-06 01:15 -29.64160 -70.64462 23077 ft 260 kts 197°
2026-05-06 01:15 -29.65966 -70.64641 23072 ft 259 kts 197°
2026-05-06 01:15 -29.67765 -70.64819 23073 ft 259 kts 197°
2026-05-06 01:15 -29.69560 -70.64996 23067 ft 259 kts 197°
2026-05-06 01:16 -29.71361 -70.65175 23072 ft 259 kts 197°
2026-05-06 01:16 -29.73158 -70.65352 23068 ft 259 kts 197°
2026-05-06 01:16 -29.74958 -70.65531 23062 ft 260 kts 197°
2026-05-06 01:16 -29.76741 -70.65707 23065 ft 261 kts 197°
2026-05-06 01:17 -29.78545 -70.65885 23054 ft 260 kts 197°
2026-05-06 01:17 -29.80338 -70.66061 23061 ft 258 kts 197°
2026-05-06 01:17 -29.82129 -70.66240 23058 ft 259 kts 197°
2026-05-06 01:17 -29.83931 -70.66421 23062 ft 260 kts 197°
2026-05-06 01:18 -29.85727 -70.66598 23052 ft 259 kts 197°
2026-05-06 01:18 -29.87515 -70.66773 23062 ft 257 kts 197°
2026-05-06 01:18 -29.89299 -70.66951 23063 ft 258 kts 197°
2026-05-06 01:18 -29.91081 -70.67128 23050 ft 254 kts 197°
2026-05-06 01:19 -29.92841 -70.67302 23048 ft 255 kts 197°
2026-05-06 01:19 -29.94612 -70.67481 23048 ft 255 kts 197°
2026-05-06 01:19 -29.96366 -70.67655 23056 ft 256 kts 197°
2026-05-06 01:19 -29.98147 -70.67832 23050 ft 258 kts 197°
2026-05-06 01:20 -29.99938 -70.68010 23048 ft 258 kts 197°
2026-05-06 01:20 -30.01734 -70.68188 23054 ft 260 kts 197°
2026-05-06 01:20 -30.03535 -70.68366 23058 ft 259 kts 197°
2026-05-06 01:20 -30.05330 -70.68544 23055 ft 259 kts 197°
2026-05-06 01:21 -30.07128 -70.68724 23055 ft 260 kts 197°
2026-05-06 01:21 -30.08933 -70.68904 23057 ft 260 kts 197°
2026-05-06 01:21 -30.10737 -70.69084 23050 ft 260 kts 197°
2026-05-06 01:21 -30.12542 -70.69263 23050 ft 260 kts 197°
2026-05-06 01:22 -30.14346 -70.69443 23058 ft 259 kts 197°
2026-05-06 01:22 -30.16126 -70.69622 23056 ft 260 kts 197°
2026-05-06 01:22 -30.17929 -70.69803 23060 ft 259 kts 197°
2026-05-06 01:22 -30.19728 -70.69982 23060 ft 260 kts 197°
2026-05-06 01:23 -30.21529 -70.70161 23061 ft 259 kts 197°
2026-05-06 01:23 -30.23326 -70.70341 23062 ft 259 kts 198°
2026-05-06 01:23 -30.25124 -70.70521 23062 ft 259 kts 198°
2026-05-06 01:23 -30.26916 -70.70700 23063 ft 258 kts 198°
2026-05-06 01:24 -30.28698 -70.70877 23067 ft 257 kts 198°
2026-05-06 01:24 -30.30460 -70.71054 23069 ft 257 kts 198°
2026-05-06 01:24 -30.32251 -70.71235 23066 ft 259 kts 198°
2026-05-06 01:24 -30.34052 -70.71416 23068 ft 260 kts 198°
2026-05-06 01:25 -30.35855 -70.71595 23072 ft 260 kts 198°
2026-05-06 01:25 -30.37662 -70.71776 23066 ft 260 kts 198°
2026-05-06 01:25 -30.39465 -70.71957 23069 ft 261 kts 198°
2026-05-06 01:25 -30.41275 -70.72138 23066 ft 260 kts 198°
2026-05-06 01:26 -30.43080 -70.72319 23071 ft 261 kts 198°
2026-05-06 01:26 -30.44887 -70.72501 23075 ft 261 kts 198°
2026-05-06 01:26 -30.46689 -70.72680 23072 ft 259 kts 198°
2026-05-06 01:26 -30.48496 -70.72862 23069 ft 262 kts 198°
2026-05-06 01:27 -30.50288 -70.73044 23076 ft 262 kts 198°
2026-05-06 01:27 -30.52135 -70.73231 23068 ft 264 kts 198°
2026-05-06 01:27 -30.53938 -70.73410 23068 ft 262 kts 198°
2026-05-06 01:27 -30.55755 -70.73592 23075 ft 262 kts 198°
2026-05-06 01:28 -30.57577 -70.73776 23071 ft 261 kts 198°
2026-05-06 01:28 -30.59381 -70.73956 23072 ft 259 kts 198°
2026-05-06 01:28 -30.61183 -70.74134 23072 ft 260 kts 198°
2026-05-06 01:28 -30.62984 -70.74306 23070 ft 260 kts 198°
2026-05-06 01:29 -30.64796 -70.74483 23069 ft 262 kts 198°
2026-05-06 01:29 -30.66617 -70.74659 23075 ft 263 kts 198°
2026-05-06 01:29 -30.67825 -70.74776 23070 ft 263 kts 197°
2026-05-06 01:29 -30.69648 -70.74952 23066 ft 263 kts 198°
2026-05-06 01:30 -30.71472 -70.75128 23065 ft 262 kts 198°
2026-05-06 01:30 -30.73292 -70.75305 23066 ft 262 kts 198°
2026-05-06 01:30 -30.75104 -70.75481 23069 ft 261 kts 198°
2026-05-06 01:30 -30.76911 -70.75656 23066 ft 260 kts 198°
2026-05-06 01:31 -30.78709 -70.75830 23073 ft 260 kts 199°
2026-05-06 01:31 -30.80516 -70.76009 23070 ft 261 kts 198°
2026-05-06 01:31 -30.82327 -70.76185 23064 ft 262 kts 198°
2026-05-06 01:31 -30.84144 -70.76361 23067 ft 263 kts 198°
2026-05-06 01:32 -30.85972 -70.76537 23071 ft 263 kts 198°
2026-05-06 01:32 -30.87774 -70.76712 23071 ft 263 kts 198°
2026-05-06 01:32 -30.89605 -70.76891 23072 ft 264 kts 198°
2026-05-06 01:32 -30.91440 -70.77069 23073 ft 264 kts 198°
2026-05-06 01:33 -30.93279 -70.77249 23072 ft 266 kts 198°
2026-05-06 01:33 -30.95117 -70.77427 23073 ft 264 kts 198°
2026-05-06 01:33 -30.96943 -70.77604 23075 ft 262 kts 198°
2026-05-06 01:33 -30.98764 -70.77783 23079 ft 263 kts 198°
2026-05-06 01:34 -31.00592 -70.77963 23079 ft 264 kts 198°
2026-05-06 01:34 -31.02423 -70.78142 23077 ft 264 kts 198°
2026-05-06 01:34 -31.04257 -70.78321 23068 ft 265 kts 198°
2026-05-06 01:34 -31.06085 -70.78498 23073 ft 263 kts 199°
2026-05-06 01:35 -31.07917 -70.78679 23069 ft 264 kts 199°
2026-05-06 01:35 -31.09727 -70.78858 23071 ft 265 kts 199°
2026-05-06 01:35 -31.11583 -70.79041 22879 ft 269 kts 198°
2026-05-06 01:35 -31.13469 -70.79225 22678 ft 270 kts 198°
2026-05-06 01:36 -31.15345 -70.79403 22503 ft 269 kts 198°
2026-05-06 01:36 -31.17222 -70.79588 22339 ft 273 kts 198°
2026-05-06 01:36 -31.19131 -70.79780 22166 ft 278 kts 198°
2026-05-06 01:36 -31.21063 -70.79970 21996 ft 281 kts 197°
2026-05-06 01:37 -31.23021 -70.80160 21814 ft 283 kts 197°
2026-05-06 01:37 -31.24991 -70.80351 21633 ft 283 kts 197°
2026-05-06 01:37 -31.26944 -70.80540 21448 ft 279 kts 195°
2026-05-06 01:37 -31.28871 -70.80729 21284 ft 278 kts 197°
2026-05-06 01:38 -31.30803 -70.80922 21104 ft 278 kts 196°
2026-05-06 01:38 -31.32745 -70.81113 20941 ft 281 kts 197°
2026-05-06 01:38 -31.34703 -70.81307 20764 ft 284 kts 197°
2026-05-06 01:38 -31.36664 -70.81497 20681 ft 282 kts 196°
2026-05-06 01:39 -31.38615 -70.81686 20610 ft 280 kts 197°
2026-05-06 01:39 -31.40519 -70.81873 20713 ft 271 kts 197°
2026-05-06 01:39 -31.42402 -70.82058 20643 ft 272 kts 197°
2026-05-06 01:39 -31.44294 -70.82253 20556 ft 275 kts 197°
2026-05-06 01:40 -31.46222 -70.82448 20463 ft 282 kts 197°
2026-05-06 01:40 -31.48195 -70.82643 20382 ft 287 kts 196°
2026-05-06 01:40 -31.50201 -70.82836 20281 ft 292 kts 196°
2026-05-06 01:40 -31.52229 -70.83034 20165 ft 292 kts 196°
2026-05-06 01:41 -31.54242 -70.83230 20047 ft 288 kts 196°
2026-05-06 01:41 -31.56233 -70.83424 19927 ft 286 kts 196°
2026-05-06 01:41 -31.58204 -70.83622 19804 ft 283 kts 196°
2026-05-06 01:41 -31.60140 -70.83815 19682 ft 281 kts 196°
2026-05-06 01:42 -31.62103 -70.84008 19565 ft 278 kts 196°
2026-05-06 01:42 -31.64000 -70.84196 19452 ft 278 kts 196°
2026-05-06 01:42 -31.65933 -70.84390 19331 ft 279 kts 195°
2026-05-06 01:42 -31.67870 -70.84582 19221 ft 281 kts 195°
2026-05-06 01:43 -31.69825 -70.84776 19100 ft 282 kts 195°
2026-05-06 01:43 -31.71785 -70.84969 18978 ft 283 kts 195°
2026-05-06 01:43 -31.73748 -70.85165 18869 ft 283 kts 195°
2026-05-06 01:43 -31.75721 -70.85294 18756 ft 288 kts 188°
2026-05-06 01:44 -31.77732 -70.85208 18631 ft 289 kts 187°
2026-05-06 01:44 -31.79743 -70.85132 18519 ft 289 kts 187°
2026-05-06 01:44 -31.81751 -70.85068 18408 ft 289 kts 187°
2026-05-06 01:44 -31.83763 -70.85001 18286 ft 289 kts 187°
2026-05-06 01:45 -31.85768 -70.84929 18147 ft 288 kts 187°
2026-05-06 01:45 -31.87766 -70.84855 18020 ft 287 kts 187°
2026-05-06 01:45 -31.89758 -70.84786 17887 ft 286 kts 186°
2026-05-06 01:45 -31.91746 -70.84716 17759 ft 285 kts 187°
2026-05-06 01:46 -31.93733 -70.84647 17635 ft 285 kts 187°
2026-05-06 01:46 -31.95698 -70.84577 17505 ft 286 kts 187°
2026-05-06 01:46 -31.97692 -70.84505 17369 ft 285 kts 187°
2026-05-06 01:46 -31.99681 -70.84435 17249 ft 286 kts 186°
2026-05-06 01:47 -32.01677 -70.84365 17126 ft 287 kts 186°
2026-05-06 01:47 -32.03660 -70.84292 17049 ft 284 kts 186°
2026-05-06 01:47 -32.05628 -70.84220 16994 ft 281 kts 186°
2026-05-06 01:47 -32.07565 -70.84150 16946 ft 277 kts 187°
2026-05-06 01:48 -32.09489 -70.84083 16897 ft 276 kts 187°
2026-05-06 01:48 -32.11405 -70.84016 16844 ft 275 kts 187°
2026-05-06 01:48 -32.13298 -70.83949 16726 ft 277 kts 186°
2026-05-06 01:48 -32.15240 -70.83880 16602 ft 280 kts 186°
2026-05-06 01:49 -32.17187 -70.83809 16481 ft 280 kts 186°
2026-05-06 01:49 -32.19140 -70.83739 16353 ft 281 kts 186°
2026-05-06 01:49 -32.21100 -70.83668 16229 ft 282 kts 186°
2026-05-06 01:49 -32.23061 -70.83598 16106 ft 283 kts 186°
2026-05-06 01:50 -32.25026 -70.83527 16033 ft 282 kts 185°
2026-05-06 01:50 -32.26979 -70.83456 16031 ft 279 kts 186°
2026-05-06 01:50 -32.28920 -70.83387 16048 ft 277 kts 186°
2026-05-06 01:50 -32.30849 -70.83320 15930 ft 280 kts 186°
2026-05-06 01:51 -32.33168 -70.83241 15690 ft 285 kts 185°
2026-05-06 01:51 -32.34513 -70.83192 15554 ft 286 kts 185°
2026-05-06 01:51 -32.36488 -70.83119 15373 ft 288 kts 185°
2026-05-06 01:51 -32.38490 -70.83044 15183 ft 289 kts 185°
2026-05-06 01:52 -32.40501 -70.82971 14997 ft 289 kts 185°
2026-05-06 01:52 -32.42522 -70.82900 14803 ft 291 kts 184°
2026-05-06 01:52 -32.44542 -70.82827 14599 ft 291 kts 184°
2026-05-06 01:52 -32.46565 -70.82754 14386 ft 291 kts 184°
2026-05-06 01:53 -32.48586 -70.82682 14175 ft 290 kts 184°
2026-05-06 01:53 -32.50604 -70.82608 13971 ft 290 kts 184°
2026-05-06 01:53 -32.52622 -70.82536 13709 ft 291 kts 183°
2026-05-06 01:53 -32.54654 -70.82464 13434 ft 292 kts 183°
2026-05-06 01:54 -32.56693 -70.82390 13153 ft 293 kts 183°
2026-05-06 01:54 -32.58736 -70.82314 12859 ft 293 kts 183°
2026-05-06 01:54 -32.60762 -70.82241 12584 ft 288 kts 183°
2026-05-06 01:54 -32.62743 -70.82169 12324 ft 283 kts 182°
2026-05-06 01:55 -32.64700 -70.82098 12042 ft 279 kts 183°
2026-05-06 01:55 -32.66636 -70.82029 11773 ft 278 kts 182°
2026-05-06 01:55 -32.68536 -70.81959 11523 ft 275 kts 182°
2026-05-06 01:55 -32.70435 -70.81890 11240 ft 272 kts 182°
2026-05-06 01:56 -32.72322 -70.81823 11007 ft 266 kts 182°
2026-05-06 01:56 -32.74129 -70.81755 10994 ft 253 kts 182°
2026-05-06 01:56 -32.75866 -70.81691 10851 ft 251 kts 182°
2026-05-06 01:56 -32.77629 -70.81632 10540 ft 256 kts 182°
2026-05-06 01:57 -32.79423 -70.81569 10240 ft 260 kts 181°
2026-05-06 01:57 -32.81244 -70.81501 9943 ft 263 kts 181°
2026-05-06 01:57 -32.83088 -70.81433 9620 ft 266 kts 180°
2026-05-06 01:57 -32.84935 -70.81364 9277 ft 264 kts 180°
2026-05-06 01:58 -32.86766 -70.81297 8946 ft 262 kts 180°
2026-05-06 01:58 -32.88560 -70.81232 8621 ft 259 kts 180°
2026-05-06 01:58 -32.90356 -70.81167 8300 ft 257 kts 180°
2026-05-06 01:58 -32.92134 -70.81143 8011 ft 252 kts 187°
2026-05-06 01:59 -32.93818 -70.81387 7998 ft 237 kts 190°
2026-05-06 01:59 -32.95417 -70.81630 7998 ft 226 kts 190°
2026-05-06 01:59 -32.96951 -70.81861 7996 ft 218 kts 190°
2026-05-06 01:59 -32.98434 -70.82083 7989 ft 212 kts 190°
2026-05-06 02:00 -32.99887 -70.82293 7990 ft 209 kts 189°
2026-05-06 02:00 -33.01304 -70.82488 7985 ft 195 kts 189°
2026-05-06 02:00 -33.02593 -70.82431 7987 ft 177 kts 174°
2026-05-06 02:00 -33.03829 -70.82245 7746 ft 181 kts 175°
2026-05-06 02:01 -33.05087 -70.82128 7504 ft 180 kts 178°
2026-05-06 02:01 -33.06316 -70.82059 7274 ft 177 kts 179°
2026-05-06 02:01 -33.07541 -70.81974 7039 ft 175 kts 178°
2026-05-06 02:01 -33.08759 -70.81887 6773 ft 176 kts 179°
2026-05-06 02:02 -33.09974 -70.81832 6551 ft 174 kts 179°
2026-05-06 02:02 -33.11166 -70.81767 6360 ft 168 kts 178°
2026-05-06 02:02 -33.12321 -70.81702 6193 ft 165 kts 178°
2026-05-06 02:02 -33.13506 -70.81639 6026 ft 180 kts 179°
2026-05-06 02:03 -33.14811 -70.81571 5862 ft 194 kts 178°
2026-05-06 02:03 -33.16198 -70.81493 5694 ft 205 kts 178°
2026-05-06 02:03 -33.17653 -70.81421 5384 ft 215 kts 178°
2026-05-06 02:03 -33.19161 -70.81340 5077 ft 218 kts 178°
2026-05-06 02:04 -33.20678 -70.81256 4797 ft 218 kts 177°
2026-05-06 02:04 -33.22154 -70.81176 4510 ft 203 kts 177°
2026-05-06 02:04 -33.23512 -70.81104 4248 ft 188 kts 177°
2026-05-06 02:04 -33.24775 -70.81038 4009 ft 176 kts 176°
2026-05-06 02:05 -33.25964 -70.80974 3784 ft 163 kts 177°
2026-05-06 02:05 -33.26999 -70.80920 3588 ft 137 kts 176°
2026-05-06 02:05 -33.27872 -70.80873 3429 ft 113 kts 176°
2026-05-06 02:05 -33.28600 -70.80833 3286 ft 99 kts 175°
2026-05-06 02:06 -33.29261 -70.80796 3157 ft 92 kts 175°
2026-05-06 02:06 -33.29880 -70.80762 3038 ft 87 kts 176°
2026-05-06 02:06 -33.30460 -70.80729 2924 ft 83 kts 175°
2026-05-06 02:06 -33.31030 -70.80700 2814 ft 79 kts 175°
2026-05-06 02:07 -33.31567 -70.80669 2713 ft 82 kts 175°
2026-05-06 02:07 -33.32200 -70.80639 2588 ft 96 kts 176°
2026-05-06 02:07 -33.32891 -70.80610 2482 ft 98 kts 178°
2026-05-06 02:07 -33.33555 -70.80574 2403 ft 98 kts 174°
2026-05-06 02:08 -33.34240 -70.80524 2276 ft 101 kts 178°
2026-05-06 02:08 -33.34947 -70.80508 2154 ft 102 kts 176°
2026-05-06 02:08 -33.35652 -70.80460 2026 ft 101 kts 175°
2026-05-06 02:08 -33.36353 -70.80422 1871 ft 100 kts 176°
2026-05-06 02:09 -33.37049 -70.80386 1666 ft 99 kts 175°
2026-05-06 02:09 -33.37693 -70.80345 1568 ft 82 kts 171°
2026-05-06 02:09 -33.38185 -70.80318 1568 ft 62 kts 179°
2026-05-06 02:09 -33.38573 -70.80302 1570 ft 51 kts 178°
2026-05-06 02:10 -33.38902 -70.80290 1570 ft 46 kts 178°
2026-05-06 02:10 -33.39198 -70.80253 1569 ft 34 kts 166°
2026-05-06 02:10 -33.39340 -70.80190 1567 ft 24 kts 155°
2026-05-06 02:10 -33.39461 -70.80100 1563 ft 17 kts 147°
2026-05-06 02:11 -33.39529 -70.79952 1561 ft 25 kts 93°
2026-05-06 02:11 -33.39523 -70.79719 1561 ft 30 kts 85°
2026-05-06 02:11 -33.39512 -70.79451 1561 ft 34 kts 86°
2026-05-06 02:11 -33.39504 -70.79198 1561 ft 22 kts 87°
2026-05-06 02:12 -33.39373 -70.79144 1561 ft 22 kts 357°
2026-05-06 02:12 -33.39242 -70.79142 1561 ft 18 kts 359°
2026-05-06 02:12 -33.39211 -70.79184 1561 ft 2 kts 264°
2026-05-06 02:12 -33.39215 -70.79199 1561 ft 4 kts 229°
2026-05-06 02:13 -33.39222 -70.79202 1561 ft 0 kts 178°